Regional Weather Roundup
Issued by NWS

Home | Current Version | Previous Version | Text Only | Print | Product List | Glossary Off
Versions: 1 2 3 4 5 6 7 8 9 10 11 12 13 14 15 16 17 18 19 20 21 22 23 24 25 26 27 28 29 30 31 32 33 34 35 36 37 38 39 40 41 42 43 44 45 46 47 48 49 50

000
ASUS45 KCYS 201810
RWRWY

WYOMING REGIONAL WEATHER ROUNDUP
NATIONAL WEATHER SERVICE CHEYENNE WY
1100 AM MST SAT DEC 20 2014

NOTE:  "FAIR" INDICATES FEW OR NO CLOUDS BELOW 12,000 FEET
WITH NO SIGNIFICANT WEATHER AND/OR OBSTRUCTIONS TO VISIBILITY.

WYZ001-201900-
YELLOWSTONE NATIONAL PARK

CITY           SKY/WX    TMP DP  RH WIND       PRES   REMARKS
LK YELLOWSTONE   N/A     26  21  81 MISG      29.99S
6HR MIN TEMP:  23; 6HR MAX TEMP:  26; 6HR PCP:  0.01;

W YELLOWSTONE  NOT AVBL

$$
WYZ002>013-054>058-071-098>099-201900-
NORTHERN WYOMING

CITY           SKY/WX    TMP DP  RH WIND       PRES   REMARKS
JACKSON        CLOUDY    32  27  80 SW7       30.02R WCI  26
CODY           PTSUNNY   36  21  55 SE10      29.92S WCI  28
GREYBULL       FAIR      18  14  84 CALM      29.97F
6HR MIN TEMP:   9; 6HR MAX TEMP:  18;

WORLAND        FAIR      16  11  80 CALM      29.96F
6HR MIN TEMP:   7; 6HR MAX TEMP:  16;

SHERIDAN       FAIR      36  25  64 S5        29.92F WCI  32
6HR MIN TEMP:  20; 6HR MAX TEMP:  36;

BUFFALO        FAIR      43  22  43 S7        29.93F
6HR MIN TEMP:  29; 6HR MAX TEMP:  43;

GILLETTE       CLOUDY    40  26  57 SW9       29.94F WCI  34
6HR MIN TEMP:  23; 6HR MAX TEMP:  40;

HULETT           N/A    N/A N/A N/A MISG        N/A
NEWCASTLE      FAIR      34  27  75 CALM      29.97S

$$
WYZ014>020-022>026-101>103-201900-
CENTRAL WYOMING

CITY           SKY/WX    TMP DP  RH WIND       PRES   REMARKS
BIG PINEY      FAIR      28  23  81 E6        30.03F WCI  22
6HR MIN TEMP:  18; 6HR MAX TEMP:  29; 6HR PCP: TRACE;

PINEDALE       CLOUDY    28  27  93 CALM      30.04F
DUBOIS         NOT AVBL
LANDER         FAIR      20  14  77 CALM      29.96F
6HR MIN TEMP:  10; 6HR MAX TEMP:  24;

RIVERTON       FAIR      19  14  81 SW8       29.97F WCI   9
6HR MIN TEMP:   6; 6HR MAX TEMP:  19;

CASPER         FAIR      34  25  69 SW18G29   29.99S WCI  23
6HR MIN TEMP:  29; 6HR MAX TEMP:  34;

DOUGLAS        FAIR      43  25  49 W14       29.98S
6HR MIN TEMP:  27; 6HR MAX TEMP:  43;


$$
WYZ021-027>030-104>119-201900-
SOUTHERN WYOMING

CITY           SKY/WX    TMP DP  RH WIND       PRES   REMARKS
EVANSTON       CLOUDY    32  28  85 SW10      30.07R WCI  24
6HR MIN TEMP:  29; 6HR MAX TEMP:  33;

KEMMERER       CLOUDY    32  28  86 SW9       30.06R WCI  24
FORT BRIDGER   CLOUDY    36  29  78 W16       30.09S WCI  26
ROCK SPRINGS   CLOUDY    33  26  75 SW18      30.05F WCI  22
6HR MIN TEMP:  27; 6HR MAX TEMP:  34;

DIXON          CLOUDY    32  25  73 SW8       30.12F WCI  25
RAWLINS        CLOUDY    31  23  72 SW10      30.05S WCI  22
6HR MIN TEMP:  26; 6HR MAX TEMP:  31;

SARATOGA       CLOUDY    32  23  69 S3        30.06S
LARAMIE        PTSUNNY   33  20  58 S16       30.00F WCI  23
6HR MIN TEMP:  24; 6HR MAX TEMP:  33;

CHEYENNE       FAIR      38  20  48 W8        30.00F WCI  32
6HR MIN TEMP:  34; 6HR MAX TEMP:  38;

TORRINGTON     FAIR     N/A N/A N/A W18G26    29.96F
PINE BLUFFS    FAIR      45  23  42 W21       30.00F

$$


USA.gov is the U.S. government's official web portal to all federal, state and local government web resources and services.